sat.trackr.live / text

‹ back to catalog

STARLINK-34178

NORAD 64096 · 2025-110A

PAYLOAD ACTIVE UNKNOWN

§ Identity

Operator
Country
US
Launch date
2025-05-23
Launch site
AFWTR
Launch vehicle
Mass (kg)
RCS (m²)

Purposes: comms

External: N2YO · Heavens-Above · Gunter

§ Orbital elements

Epoch: 2026-05-25T00:07:28.580160Z

Period
94.11 min
Inclination
53.1615°
Eccentricity
0.0001129
Mean motion
15.30201613 rev/d
Perigee alt
474.4 km
Apogee alt
476.0 km
Semi-major
6,853.3 km
B*
2.9229e-4
RAAN
32.5010°
Arg perigee
88.3740°
Mean anomaly
271.7390°
Rev number
5,756

§ Raw data

STARLINK-341781 64096U 25110A   26145.00519190  .00008308  00000+0  29229-3 0  99922 64096  53.1615  32.5010 0001129  88.3740 271.7390 15.30201613 57566

JSON: /api/v1/satellites/64096 · /tle

For live sub-satellite position, see the globe view (requires WebGL).

§ Visibility from observer

Set your observer location to see the next 7 days of passes ≥ 10°. The values pass through the URL so the page stays shareable.

No JS? Fill the form by hand. The geolocation button needs JavaScript.